Regional Weather Roundup
Issued by NWS

Home | Current Version | Previous Version | Graphics & Text | Print | Product List | Glossary On
Versions: 1 2 3 4 5 6 7 8 9 10 11 12 13 14 15 16 17 18 19 20 21 22 23 24 25 26 27 28 29 30 31 32 33 34 35 36 37 38 39 40 41 42 43 44 45 46 47 48 49 50
232
ASUS45 KCYS 251910
RWRWY

WYOMING REGIONAL WEATHER ROUNDUP
NATIONAL WEATHER SERVICE CHEYENNE WY
100 PM MDT THU MAY 25 2017

NOTE:  "FAIR" INDICATES FEW OR NO CLOUDS BELOW 12,000 FEET
WITH NO SIGNIFICANT WEATHER AND/OR OBSTRUCTIONS TO VISIBILITY.

WYZ001-252000-
YELLOWSTONE NATIONAL PARK

CITY           SKY/WX    TMP DP  RH WIND       PRES   REMARKS
LK YELLOWSTONE   N/A     41  22  46 VRB3      29.84R
W YELLOWSTONE  NOT AVBL

$$
WYZ002>013-054>058-071-098>099-252000-
NORTHERN WYOMING

CITY           SKY/WX    TMP DP  RH WIND       PRES   REMARKS
JACKSON        PTSUNNY   52  16  24 W9        29.77R
CODY           CLOUDY    51  29  42 NE13      29.74R
GREYBULL       FAIR      58  32  37 NW33G41   29.69R
WORLAND        FAIR      61  33  35 N22G32    29.68R
SHERIDAN       CLOUDY    52  37  56 NW31G38   29.67R
BUFFALO        PTSUNNY   56  37  49 N29G38    29.68R
GILLETTE       FAIR      60  35  39 NW15G23   29.62R
HULETT         FAIR      61  32  33 W8        29.61R
NEWCASTLE      FAIR      61  27  27 NW18G28   29.62R

$$
WYZ014>020-022>026-101>103-252000-
CENTRAL WYOMING

CITY           SKY/WX    TMP DP  RH WIND       PRES   REMARKS
BIG PINEY      FAIR      55  21  26 MISG      29.76S
PINEDALE       FAIR      52  19  28 SW9G18    29.76R
DUBOIS         FAIR      50  14  23 NW10G22   29.72R
LANDER         FAIR      62  24  23 N14       29.66R
RIVERTON       FAIR      62  15  16 NW12G23   29.67R
CASPER         FAIR      61  30  31 W18       29.65S
DOUGLAS        CLOUDY    59  41  51 W16G23    29.64R

$$
WYZ021-027>030-104>119-252000-
SOUTHERN WYOMING

CITY           SKY/WX    TMP DP  RH WIND       PRES   REMARKS
EVANSTON         N/A     56  33  42 W21       29.79R
KEMMERER         N/A     50  30  46 W14G24    29.79
FORT BRIDGER   MOCLDY    58  28  31 NW13G23   29.80
ROCK SPRINGS   FAIR      57  26  30 W20G26    29.75S
DIXON          LGT RAIN  50  40  68 N8        29.78F
RAWLINS        FAIR      55  38  52 SW21G28   29.74F
SARATOGA       LGT RAIN  48  39  71 SW9       29.77F
LARAMIE        PTSUNNY   62  38  40 W18G25    29.70S
CHEYENNE       FAIR      64  42  44 NE7       29.66F
TORRINGTON     FAIR      72  42  34 W12G26    29.57F
PINE BLUFFS    FAIR      63  41  45 N13       29.63F

$$




USA.gov is the U.S. government's official web portal to all federal, state and local government web resources and services.